Date String (YYYY-MM-DD hh:mm:ss) UTC,Instrument flags,Ambient pressure (hPa),Sample flow (lpm),Bypass flow (lpm),Sample temperature (°C),Ambient temperature (°C),ASC tube jacket temperature (°C),LED temperature (°C),Box temperature (°C),Sample RH (%),Span deviation,Mass concentration (μg/m³),Mass concentration (μg/m³),Mass concentration (μg/m³)
DateTimeUTC,F1_M11,P_M11,Q1_M11,Q2_M11,T1_M11,T2_M11,T3_M11,T4_M11,T5_M11,U1_M11,ZSPAN_M11,X0_M11,X2_M11,X1_M11
2022-01-16 19:00:00,,0825.9,5.01,0.00,25.7,24.9,00.0,34.6,27.6,06.0,0000.0,0006.45,0003.54,0003.31
2022-01-16 19:01:00,,0825.9,4.99,0.00,25.7,25.0,00.0,34.6,27.6,06.1,0000.0,0005.85,0003.50,0003.27
2022-01-16 19:02:00,,0825.9,5.01,0.00,25.8,25.0,00.0,34.7,27.6,06.0,0000.0,0005.50,0003.46,0003.24
2022-01-16 19:03:00,,0825.9,4.99,0.00,25.8,25.0,00.0,34.7,27.6,05.9,0000.0,0005.43,0003.44,0003.20
2022-01-16 19:04:00,,0825.9,4.99,0.00,25.8,25.0,00.0,34.7,27.6,06.1,0000.0,0005.39,0003.42,0003.17
2022-01-16 19:05:00,,0825.9,5.00,0.00,25.8,25.0,00.0,34.7,27.6,06.0,0000.0,0005.29,0003.38,0003.13
2022-01-16 19:06:00,,0825.9,5.01,0.00,25.8,25.0,00.0,34.7,27.7,06.2,0000.0,0005.38,0003.34,0003.06
2022-01-16 19:07:00,,0825.9,5.00,0.00,25.8,25.0,00.0,34.7,27.7,05.9,0000.0,0005.42,0003.31,0002.97
2022-01-16 19:08:00,,0825.8,5.01,0.00,25.8,25.0,00.0,34.7,27.7,05.6,0000.0,0005.29,0003.22,0002.81
2022-01-16 19:09:00,,0825.7,4.99,0.00,25.8,25.0,00.0,34.7,27.7,06.0,0000.0,0005.03,0003.10,0002.68
2022-01-16 19:10:00,,0825.8,5.00,0.00,25.9,25.0,00.0,34.7,27.7,06.1,0000.0,0004.60,0002.99,0002.56
2022-01-16 19:11:00,,0825.8,4.99,0.00,25.9,25.1,00.0,34.8,27.7,05.9,0000.0,0004.37,0002.89,0002.44
2022-01-16 19:12:00,,0825.8,5.01,0.00,25.9,25.1,00.0,34.8,27.7,05.8,0000.0,0004.25,0002.76,0002.30
2022-01-16 19:13:00,,0825.7,4.99,0.00,25.9,25.1,00.0,34.8,27.7,06.1,0000.0,0004.16,0002.65,0002.18
2022-01-16 19:14:00,,0825.8,5.01,0.00,25.9,25.1,00.0,34.8,27.8,05.9,0000.0,0004.22,0002.45,0002.03
2022-01-16 19:15:00,,0825.8,5.00,0.00,25.9,25.1,00.0,34.8,27.8,06.0,0000.0,0004.37,0002.27,0001.87
2022-01-16 19:16:00,,0825.8,4.99,0.00,26.0,25.2,00.0,34.8,27.8,06.0,0000.0,0004.19,0002.12,0001.76
2022-01-16 19:17:00,,0825.9,5.02,0.00,26.0,25.2,00.0,34.8,27.8,06.3,0000.0,0003.93,0002.03,0001.69
2022-01-16 19:18:00,,0825.8,4.99,0.00,26.0,25.2,00.0,34.8,27.8,06.2,0000.0,0003.56,0001.88,0001.61
2022-01-16 19:19:00,,0825.8,4.99,0.00,26.0,25.2,00.0,34.9,27.8,05.6,0000.0,0003.28,0001.75,0001.51
2022-01-16 19:20:00,,0825.8,5.02,0.00,26.0,25.2,00.0,34.9,27.8,05.4,0000.0,0003.09,0001.61,0001.38
2022-01-16 19:21:00,,0825.7,4.99,0.00,26.0,25.2,00.0,34.9,27.9,05.9,0000.0,0002.98,0001.50,0001.27
2022-01-16 19:22:00,,0825.7,5.01,0.00,26.0,25.2,00.0,34.9,27.9,06.4,0000.0,0002.55,0001.37,0001.19
2022-01-16 19:23:00,,0825.8,5.00,0.00,26.1,25.2,00.0,34.9,27.9,06.3,0000.0,0002.49,0001.42,0001.27
2022-01-16 19:24:00,,0825.8,4.99,0.00,26.1,25.3,00.0,34.9,27.9,06.4,0000.0,0002.55,0001.51,0001.38
2022-01-16 19:25:00,,0825.8,5.01,0.00,26.1,25.3,00.0,34.9,28.0,06.4,0000.0,0003.43,0001.71,0001.54
2022-01-16 19:26:00,,0825.8,4.98,0.00,26.1,25.3,00.0,34.9,28.0,06.3,0000.0,0003.11,0001.95,0001.75
2022-01-16 19:27:00,,0825.7,5.02,0.00,26.1,25.3,00.0,35.0,28.0,06.5,0000.0,0003.40,0002.17,0001.93
2022-01-16 19:28:00,,0825.7,4.99,0.00,26.1,25.4,00.0,35.0,28.0,06.6,0000.0,0003.68,0002.37,0002.11
2022-01-16 19:29:00,,0825.7,5.01,0.00,26.1,25.4,00.0,35.0,28.0,06.6,0000.0,0004.80,0002.53,0002.26
2022-01-16 19:30:00,,0825.7,4.98,0.00,26.2,25.4,00.0,35.0,28.0,06.3,0000.0,0005.14,0002.72,0002.44
2022-01-16 19:31:00,,0825.7,5.01,0.00,26.2,25.4,00.0,35.0,28.1,06.3,0000.0,0005.42,0002.96,0002.66
2022-01-16 19:32:00,,0825.7,5.00,0.00,26.2,25.4,00.0,35.0,28.0,06.3,0000.0,0005.82,0003.18,0002.89
2022-01-16 19:33:00,,0825.6,4.99,0.00,26.2,25.4,00.0,35.1,28.1,06.4,0000.0,0006.45,0003.31,0003.09
2022-01-16 19:34:00,,0825.6,5.02,0.00,26.2,25.4,00.0,35.1,28.1,05.9,0000.0,0006.64,0003.34,0003.12
2022-01-16 19:35:00,,0825.6,4.98,0.00,26.2,25.4,00.0,35.1,28.1,06.2,0000.0,0006.72,0003.37,0003.14
2022-01-16 19:36:00,,0825.6,5.01,0.00,26.2,25.4,00.0,35.1,28.1,05.9,0000.0,0006.18,0003.33,0003.12
2022-01-16 19:37:00,,0825.6,4.99,0.00,26.2,25.4,00.0,35.1,28.1,06.1,0000.0,0005.99,0003.33,0003.12
2022-01-16 19:38:00,,0825.7,5.02,0.00,26.2,25.4,00.0,35.1,28.1,06.8,0000.0,0006.15,0003.41,0003.20
2022-01-16 19:39:00,,0825.6,4.99,0.00,26.2,25.5,00.0,35.1,28.1,07.0,0000.0,0006.59,0003.51,0003.32
2022-01-16 19:40:00,,0825.6,5.02,0.00,26.2,25.5,00.0,35.1,28.1,06.9,0000.0,0005.90,0003.63,0003.43
2022-01-16 19:41:00,,0825.6,4.99,0.00,26.3,25.5,00.0,35.2,28.1,06.8,0000.0,0006.31,0003.77,0003.56
2022-01-16 19:42:00,,0825.5,5.00,0.00,26.3,25.5,00.0,35.2,28.1,06.7,0000.0,0006.65,0003.92,0003.68
2022-01-16 19:43:00,,0825.6,4.99,0.00,26.3,25.5,00.0,35.2,28.1,06.5,0000.0,0006.96,0004.00,0003.78
2022-01-16 19:44:00,,0825.6,5.01,0.00,26.3,25.5,00.0,35.2,28.1,06.8,0000.0,0007.05,0004.10,0003.89
2022-01-16 19:45:00,,0825.5,4.98,0.00,26.3,25.5,00.0,35.2,28.1,06.9,0000.0,0007.30,0004.26,0004.05
2022-01-16 19:46:00,,0825.6,5.02,0.00,26.3,25.5,00.0,35.2,28.2,06.7,0000.0,0007.51,0004.40,0004.17
2022-01-16 19:47:00,,0825.5,4.99,0.00,26.3,25.6,00.0,35.2,28.2,06.7,0000.0,0007.76,0004.58,0004.32
2022-01-16 19:48:00,,0825.5,5.01,0.00,26.3,25.6,00.0,35.2,28.2,06.7,0000.0,0008.51,0004.69,0004.42
2022-01-16 19:49:00,,0825.5,4.99,0.00,26.3,25.6,00.0,35.2,28.2,06.7,0000.0,0008.76,0004.73,0004.45
2022-01-16 19:50:00,,0825.6,5.00,0.00,26.3,25.6,00.0,35.2,28.2,06.5,0000.0,0009.26,0004.75,0004.43
2022-01-16 19:51:00,,0825.5,5.00,0.00,26.4,25.6,00.0,35.3,28.2,06.6,0000.0,0009.38,0004.76,0004.42
2022-01-16 19:52:00,,0825.6,4.99,0.00,26.4,25.6,00.0,35.3,28.2,06.8,0000.0,0009.45,0004.73,0004.40
2022-01-16 19:53:00,,0825.6,5.01,0.00,26.4,25.6,00.0,35.3,28.2,06.9,0000.0,0009.56,0004.75,0004.39
2022-01-16 19:54:00,,0825.5,4.99,0.00,26.4,25.7,00.0,35.3,28.3,06.8,0000.0,0009.52,0004.78,0004.40
2022-01-16 19:55:00,,0825.6,4.99,0.00,26.4,25.7,00.0,35.3,28.3,06.8,0000.0,0009.43,0004.78,0004.40
2022-01-16 19:56:00,,0825.6,5.02,0.00,26.4,25.7,00.0,35.3,28.3,06.9,0000.0,0009.91,0004.76,0004.37
2022-01-16 19:57:00,,0825.6,4.99,0.00,26.4,25.7,00.0,35.3,28.3,07.0,0000.0,0010.43,0004.72,0004.35
2022-01-16 19:58:00,,0825.6,5.01,0.00,26.5,25.7,00.0,35.3,28.3,07.0,0000.0,0010.73,0004.68,0004.34
2022-01-16 19:59:00,,0825.6,4.99,0.00,26.5,25.8,00.0,35.4,28.3,07.2,0000.0,0010.34,0004.69,0004.37
